Weather in Mamburao

Philippines     13°13′46″N   120°34′54″E
temp.,
°C
wind,
m/s
gust,
m/s
humid.,
%
clouds,
%
prec.,
mm/h
press.,
hPa
HPBL,
m
4 march, thu
thu423:00+26nne34794 0.1 1014218
02:00+26ne44792 0.1 1013199
05:00+26nne44790 0.0 1013207
08:00+27ne33710 0.0 1015318
11:00+30wsw22640 0.0 1015628
14:00+29w33677 0.3 1013588
17:00+29w33690 0.3 1012380
20:00+27nne12770 0.4 101346
5 march, fri
fri523:00+26ne44760 0.1 1014159
02:00+25ne34760 0.1 1012180
05:00+24ne44770 0.0 1013208
08:00+26ne34690 0.0 1015350
11:00+30nnw12570 0.0 1015525
14:00+29wsw43600 0.0 1013567
17:00+29w33650 0.0 1012294
20:00+27ne23720 0.0 1013227
6 march, sat
sat623:00+26nne34770 0.0 1014205
02:00+26ne45770 0.0 1012252
05:00+25ne34770 0.0 1012245
08:00+26ne34680 0.0 1015414
11:00+29wsw22570 0.0 1015543
14:00+29w546320 0.0 1012581
17:00+28w43690 0.0 1012380
20:00+27nne34720 0.0 1013358
7 march, sun
sun723:00+26ne57743 0.0 1014262
02:00+25ne577545 0.0 1013282
05:00+24ne4574100 0.0 1012256
08:00+26ne3467100 0.0 1014414
11:00+28ssw225887 0.0 1014574
14:00+29w445744 0.0 1011655
17:00+29nw35560 0.0 1011305
20:00+26ene56690 0.0 1013374
8 march, mon
mon823:00+25ne57749 0.0 1014367
02:00+24ne46745 0.0 1012350
05:00+24ne457447 0.0 1013342
08:00+26ne566725 0.0 1014553
11:00+29ne145773 0.0 1014733
14:00+29wsw235986 0.0 1011626
17:00+29ene1361100 0.0 1011388
20:00+26ne686883 0.0 1013403